VIV7026 MMGL-MMPS

Flight info

Callsign VIV7026
Flight time 1h 13m
Altitude 39000
Route EMIRI1B EMIRI DCT UPN UT145 ACA J1 PXM
Aircraft A20N/M-SDE2E3FGHIRWXY/LB1

Departure

Time 2026-05-04 19:46
Airport Guadalajara International Airport (MMGL)

Arrival

Time 2026-05-04 21:00
Airport Puerto Escondido International Airport (MMPS)
Time Latitude Longitude Altitude Speed Heading
2026-05-04 19:35 20.52505 -103.30296 5011 ft 0 kts 24°
2026-05-04 19:38 20.52492 -103.30303 5011 ft 2 kts 28°
2026-05-04 19:39 20.52478 -103.30312 5013 ft 2 kts 34°
2026-05-04 19:39 20.52465 -103.30323 5015 ft 2 kts 48°
2026-05-04 19:39 20.52456 -103.30338 5011 ft 2 kts 76°
2026-05-04 19:39 20.52456 -103.30356 5012 ft 2 kts 102°
2026-05-04 19:40 20.52458 -103.30366 5012 ft 1 kts 108°
2026-05-04 19:40 20.52458 -103.30367 5012 ft 0 kts 108°
2026-05-04 19:42 20.52450 -103.30336 5011 ft 11 kts 107°
2026-05-04 19:42 20.52406 -103.30230 5016 ft 15 kts 148°
2026-05-04 19:42 20.52302 -103.30247 5016 ft 16 kts 198°
2026-05-04 19:43 20.52199 -103.30268 5018 ft 14 kts 150°
2026-05-04 19:43 20.52160 -103.30184 5015 ft 15 kts 108°
2026-05-04 19:43 20.52122 -103.30066 5016 ft 19 kts 108°
2026-05-04 19:43 20.52074 -103.29923 5015 ft 22 kts 111°
2026-05-04 19:44 20.51988 -103.29780 5018 ft 24 kts 129°
2026-05-04 19:44 20.51884 -103.29632 5018 ft 26 kts 125°
2026-05-04 19:44 20.51784 -103.29485 5017 ft 24 kts 127°
2026-05-04 19:44 20.51684 -103.29340 5017 ft 24 kts 124°
2026-05-04 19:45 20.51581 -103.29213 5017 ft 21 kts 165°
2026-05-04 19:45 20.51455 -103.29257 5015 ft 18 kts 212°
2026-05-04 19:45 20.51445 -103.29367 5016 ft 19 kts 292°
2026-05-04 19:45 20.51593 -103.29718 5018 ft 86 kts 294°
2026-05-04 19:46 20.51930 -103.30516 5018 ft 147 kts 295°
2026-05-04 19:46 20.52430 -103.31654 5292 ft 184 kts 293°
2026-05-04 19:46 20.52878 -103.32983 5992 ft 202 kts 285°
2026-05-04 19:46 20.53086 -103.34578 6152 ft 220 kts 256°
2026-05-04 19:47 20.52336 -103.35963 6340 ft 226 kts 219°
2026-05-04 19:47 20.50898 -103.36650 6591 ft 241 kts 187°
2026-05-04 19:47 20.49102 -103.36432 7064 ft 278 kts 159°
2026-05-04 19:47 20.47462 -103.35207 7478 ft 294 kts 129°
2026-05-04 19:48 20.46562 -103.33280 7933 ft 305 kts 109°
2026-05-04 19:48 20.45926 -103.30982 8350 ft 340 kts 107°
2026-05-04 19:48 20.45183 -103.28483 8954 ft 367 kts 108°
2026-05-04 19:48 20.44335 -103.25815 9561 ft 394 kts 109°
2026-05-04 19:49 20.43584 -103.23098 9922 ft 356 kts 108°
2026-05-04 19:49 20.42429 -103.20811 10401 ft 365 kts 127°
2026-05-04 19:49 20.40811 -103.18640 10925 ft 388 kts 131°
2026-05-04 19:49 20.38982 -103.16404 11478 ft 407 kts 133°
2026-05-04 19:50 20.37122 -103.14218 12023 ft 381 kts 134°
2026-05-04 19:50 20.35317 -103.12149 12612 ft 387 kts 135°
2026-05-04 19:51 20.33449 -103.10036 13220 ft 393 kts 135°
2026-05-04 19:51 20.31564 -103.07909 13836 ft 397 kts 134°
2026-05-04 19:51 20.29664 -103.05772 14387 ft 399 kts 134°
2026-05-04 19:51 20.27754 -103.03629 14946 ft 400 kts 134°
2026-05-04 19:52 20.25820 -103.01461 15555 ft 402 kts 133°
2026-05-04 19:52 20.23892 -102.99297 16180 ft 404 kts 133°
2026-05-04 19:52 20.21945 -102.97104 16798 ft 408 kts 132°
2026-05-04 19:52 20.19999 -102.94906 17402 ft 412 kts 132°
2026-05-04 19:53 20.18023 -102.92672 18041 ft 415 kts 131°
2026-05-04 19:53 20.16031 -102.90417 18611 ft 417 kts 131°
2026-05-04 19:53 20.14048 -102.88165 19175 ft 421 kts 131°
2026-05-04 19:53 20.12042 -102.85883 19734 ft 426 kts 131°
2026-05-04 19:54 20.10014 -102.83579 20309 ft 429 kts 131°
2026-05-04 19:54 20.07978 -102.81266 20906 ft 432 kts 131°
2026-05-04 19:54 20.05898 -102.78909 21520 ft 436 kts 132°
2026-05-04 19:54 20.03816 -102.76549 22125 ft 440 kts 131°
2026-05-04 19:55 20.01708 -102.74157 22759 ft 444 kts 132°
2026-05-04 19:55 19.99563 -102.71725 23411 ft 447 kts 132°
2026-05-04 19:55 19.97430 -102.69307 23954 ft 450 kts 132°
2026-05-04 19:55 19.95300 -102.66893 24419 ft 454 kts 132°
2026-05-04 19:56 19.93123 -102.64428 24848 ft 460 kts 133°
2026-05-04 19:56 19.90899 -102.61915 25288 ft 464 kts 132°
2026-05-04 19:56 19.88683 -102.59413 25733 ft 468 kts 133°
2026-05-04 19:56 19.86447 -102.56887 26186 ft 472 kts 133°
2026-05-04 19:57 19.84200 -102.54350 26650 ft 476 kts 133°
2026-05-04 19:57 19.81923 -102.51778 27123 ft 479 kts 133°
2026-05-04 19:57 19.79622 -102.49183 27611 ft 482 kts 133°
2026-05-04 19:57 19.77319 -102.46587 28092 ft 485 kts 133°
2026-05-04 19:58 19.75002 -102.43977 28587 ft 488 kts 133°
2026-05-04 19:58 19.72672 -102.41352 28961 ft 493 kts 133°
2026-05-04 19:58 19.70293 -102.38674 29325 ft 498 kts 133°
2026-05-04 19:58 19.67893 -102.35974 29685 ft 503 kts 134°
2026-05-04 19:59 19.65498 -102.33278 30027 ft 507 kts 134°
2026-05-04 19:59 19.63070 -102.30548 30353 ft 511 kts 134°
2026-05-04 19:59 19.60605 -102.27779 30699 ft 515 kts 134°
2026-05-04 19:59 19.58158 -102.25033 31044 ft 514 kts 134°
2026-05-04 20:00 19.55711 -102.22287 31373 ft 509 kts 134°
2026-05-04 20:00 19.54116 -102.20497 31621 ft 506 kts 134°
2026-05-04 20:00 19.50905 -102.16894 32099 ft 504 kts 134°
2026-05-04 20:00 19.49294 -102.15084 32305 ft 505 kts 134°
2026-05-04 20:01 19.46870 -102.12363 32584 ft 505 kts 134°
2026-05-04 20:01 19.44443 -102.09635 32852 ft 504 kts 134°
2026-05-04 20:01 19.41246 -102.06103 33185 ft 502 kts 136°
2026-05-04 20:01 19.38676 -102.03593 33443 ft 501 kts 139°
2026-05-04 20:02 19.36917 -102.01961 33610 ft 501 kts 140°
2026-05-04 20:02 19.34249 -101.99541 33865 ft 501 kts 140°
2026-05-04 20:02 19.31592 -101.97165 34109 ft 500 kts 140°
2026-05-04 20:02 19.28931 -101.94805 34227 ft 502 kts 141°
2026-05-04 20:03 19.26263 -101.92446 34259 ft 503 kts 141°
2026-05-04 20:03 19.20870 -101.87689 34213 ft 502 kts 141°
2026-05-04 20:04 19.15538 -101.82989 34129 ft 501 kts 141°
2026-05-04 20:04 19.10171 -101.78259 34066 ft 501 kts 141°
2026-05-04 20:05 19.04833 -101.73553 34049 ft 501 kts 141°
2026-05-04 20:05 18.99449 -101.68810 34045 ft 501 kts 140°
2026-05-04 20:06 18.94101 -101.64103 34035 ft 501 kts 141°
2026-05-04 20:06 18.88762 -101.59408 34023 ft 500 kts 141°
2026-05-04 20:07 18.83426 -101.54715 34004 ft 500 kts 141°
2026-05-04 20:07 18.78073 -101.50012 33993 ft 500 kts 141°
2026-05-04 20:08 18.72762 -101.45347 33989 ft 499 kts 141°
2026-05-04 20:08 18.67432 -101.40672 33961 ft 497 kts 141°
2026-05-04 20:09 18.62100 -101.35994 33962 ft 497 kts 141°
2026-05-04 20:09 18.56804 -101.31348 33954 ft 496 kts 141°
2026-05-04 20:10 18.51492 -101.26710 33952 ft 496 kts 141°
2026-05-04 20:10 18.46165 -101.22072 33956 ft 495 kts 141°
2026-05-04 20:11 18.40863 -101.17457 33954 ft 495 kts 141°
2026-05-04 20:11 18.35574 -101.12852 33967 ft 495 kts 141°
2026-05-04 20:12 18.30258 -101.08224 33956 ft 494 kts 141°
2026-05-04 20:12 18.25272 -101.03882 33956 ft 494 kts 141°
2026-05-04 20:13 18.20004 -100.99295 33971 ft 494 kts 141°
2026-05-04 20:13 18.14698 -100.94675 33968 ft 494 kts 141°
2026-05-04 20:14 18.09390 -100.90068 33979 ft 493 kts 141°
2026-05-04 20:14 18.04077 -100.85470 33991 ft 494 kts 141°
2026-05-04 20:15 17.98785 -100.80889 34001 ft 492 kts 141°
2026-05-04 20:15 17.93530 -100.76339 34023 ft 492 kts 141°
2026-05-04 20:16 17.88224 -100.71753 34031 ft 493 kts 141°
2026-05-04 20:16 17.82935 -100.67183 34041 ft 493 kts 141°
2026-05-04 20:17 17.77639 -100.62603 34062 ft 494 kts 141°
2026-05-04 20:17 17.72290 -100.57993 34069 ft 494 kts 142°
2026-05-04 20:18 17.67013 -100.53453 34067 ft 493 kts 141°
2026-05-04 20:18 17.61726 -100.48902 34077 ft 492 kts 141°
2026-05-04 20:19 17.56416 -100.44334 34082 ft 492 kts 141°
2026-05-04 20:19 17.51403 -100.40022 34099 ft 491 kts 141°
2026-05-04 20:20 17.46140 -100.35492 34089 ft 491 kts 141°
2026-05-04 20:20 17.40842 -100.30937 34097 ft 490 kts 141°
2026-05-04 20:21 17.35584 -100.26430 34099 ft 490 kts 141°
2026-05-04 20:21 17.27659 -100.19647 34085 ft 489 kts 141°
2026-05-04 20:22 17.22392 -100.15145 34090 ft 489 kts 141°
2026-05-04 20:22 17.17122 -100.10640 34083 ft 489 kts 141°
2026-05-04 20:23 17.11854 -100.06134 34077 ft 489 kts 141°
2026-05-04 20:23 17.06612 -100.01655 34069 ft 487 kts 141°
2026-05-04 20:24 17.01378 -99.97185 34067 ft 488 kts 141°
2026-05-04 20:24 16.96082 -99.92663 34056 ft 488 kts 141°
2026-05-04 20:25 16.90834 -99.88184 34051 ft 488 kts 141°
2026-05-04 20:25 16.85582 -99.83703 34040 ft 488 kts 141°
2026-05-04 20:26 16.80300 -99.79199 34019 ft 490 kts 141°
2026-05-04 20:26 16.75857 -99.73935 33664 ft 493 kts 116°
2026-05-04 20:27 16.74487 -99.70654 33295 ft 493 kts 111°
2026-05-04 20:27 16.73264 -99.67306 32874 ft 482 kts 109°
2026-05-04 20:27 16.72158 -99.64082 32486 ft 474 kts 109°
2026-05-04 20:27 16.71084 -99.60835 32114 ft 475 kts 108°
2026-05-04 20:28 16.70021 -99.57557 31734 ft 476 kts 107°
2026-05-04 20:28 16.68973 -99.54291 31378 ft 476 kts 108°
2026-05-04 20:28 16.67925 -99.51024 31002 ft 475 kts 107°
2026-05-04 20:28 16.66871 -99.47732 30627 ft 474 kts 107°
2026-05-04 20:29 16.65832 -99.44488 30251 ft 475 kts 107°
2026-05-04 20:29 16.64782 -99.41230 29868 ft 475 kts 107°
2026-05-04 20:29 16.63719 -99.37940 29431 ft 476 kts 107°
2026-05-04 20:29 16.62662 -99.34670 29017 ft 477 kts 107°
2026-05-04 20:30 16.61607 -99.31421 28602 ft 478 kts 107°
2026-05-04 20:30 16.60527 -99.28099 28190 ft 479 kts 107°
2026-05-04 20:30 16.59456 -99.24805 27784 ft 480 kts 107°
2026-05-04 20:30 16.58397 -99.21550 27390 ft 481 kts 107°
2026-05-04 20:31 16.57316 -99.18234 26995 ft 482 kts 107°
2026-05-04 20:31 16.56235 -99.14924 26612 ft 482 kts 107°
2026-05-04 20:31 16.55158 -99.11626 26231 ft 483 kts 107°
2026-05-04 20:31 16.54063 -99.08276 25852 ft 484 kts 107°
2026-05-04 20:32 16.52985 -99.04983 25487 ft 480 kts 107°
2026-05-04 20:32 16.51918 -99.01727 25115 ft 476 kts 107°
2026-05-04 20:32 16.50851 -98.98476 24748 ft 474 kts 107°
2026-05-04 20:32 16.49781 -98.95214 24409 ft 472 kts 107°
2026-05-04 20:33 16.48722 -98.91988 24081 ft 469 kts 107°
2026-05-04 20:33 16.47672 -98.88788 23732 ft 467 kts 107°
2026-05-04 20:33 16.46627 -98.85603 23377 ft 464 kts 107°
2026-05-04 20:33 16.45587 -98.82435 22970 ft 461 kts 107°
2026-05-04 20:34 16.44551 -98.79274 22554 ft 458 kts 107°
2026-05-04 20:34 16.43528 -98.76153 22190 ft 455 kts 107°
2026-05-04 20:34 16.42505 -98.73036 21842 ft 452 kts 107°
2026-05-04 20:34 16.41482 -98.69921 21495 ft 451 kts 107°
2026-05-04 20:35 16.40478 -98.66863 21154 ft 448 kts 107°
2026-05-04 20:35 16.39467 -98.63790 20808 ft 445 kts 107°
2026-05-04 20:35 16.38468 -98.60756 20473 ft 444 kts 107°
2026-05-04 20:35 16.37472 -98.57732 20127 ft 442 kts 107°
2026-05-04 20:36 16.36465 -98.54677 19796 ft 439 kts 107°
2026-05-04 20:36 16.35488 -98.51714 19465 ft 436 kts 107°
2026-05-04 20:36 16.34502 -98.48725 19098 ft 435 kts 107°
2026-05-04 20:36 16.33528 -98.45781 18728 ft 431 kts 107°
2026-05-04 20:37 16.32554 -98.42831 18356 ft 428 kts 107°
2026-05-04 20:37 16.31588 -98.39906 17964 ft 426 kts 107°
2026-05-04 20:37 16.30623 -98.36987 17541 ft 423 kts 107°
2026-05-04 20:37 16.29682 -98.34142 17159 ft 420 kts 107°
2026-05-04 20:38 16.28732 -98.31277 16839 ft 407 kts 107°
2026-05-04 20:38 16.27832 -98.28571 16541 ft 385 kts 107°
2026-05-04 20:38 16.26959 -98.25956 16254 ft 377 kts 107°
2026-05-04 20:38 16.26095 -98.23365 15973 ft 378 kts 107°
2026-05-04 20:39 16.25247 -98.20814 15697 ft 376 kts 107°
2026-05-04 20:39 16.24390 -98.18233 15421 ft 374 kts 107°
2026-05-04 20:39 16.23552 -98.15703 15136 ft 373 kts 107°
2026-05-04 20:39 16.22705 -98.13144 14886 ft 372 kts 107°
2026-05-04 20:40 16.21863 -98.10612 14619 ft 370 kts 107°
2026-05-04 20:40 16.21026 -98.08088 14356 ft 369 kts 107°
2026-05-04 20:40 16.20193 -98.05578 14090 ft 367 kts 107°
2026-05-04 20:40 16.19357 -98.03063 13833 ft 366 kts 107°
2026-05-04 20:41 16.18525 -98.00565 13567 ft 365 kts 107°
2026-05-04 20:41 16.17694 -97.98070 13269 ft 363 kts 107°
2026-05-04 20:41 16.17147 -97.96428 13076 ft 363 kts 107°
2026-05-04 20:41 16.16052 -97.93139 12697 ft 362 kts 107°
2026-05-04 20:42 16.15492 -97.91457 12503 ft 361 kts 107°
2026-05-04 20:42 16.14680 -97.89024 12216 ft 359 kts 107°
2026-05-04 20:42 16.13854 -97.86544 11932 ft 360 kts 107°
2026-05-04 20:42 16.13047 -97.84126 11651 ft 357 kts 107°
2026-05-04 20:43 16.12225 -97.81670 11386 ft 356 kts 107°
2026-05-04 20:43 16.11412 -97.79240 11121 ft 354 kts 108°
2026-05-04 20:43 16.10602 -97.76818 10871 ft 354 kts 107°
2026-05-04 20:43 16.09800 -97.74419 10634 ft 353 kts 107°
2026-05-04 20:44 16.08990 -97.72001 10383 ft 352 kts 107°
2026-05-04 20:44 16.08189 -97.69607 10137 ft 351 kts 107°
2026-05-04 20:44 16.07387 -97.67212 9887 ft 350 kts 107°
2026-05-04 20:44 16.06587 -97.64832 9781 ft 346 kts 108°
2026-05-04 20:45 16.05794 -97.62471 9808 ft 350 kts 107°
2026-05-04 20:45 16.04998 -97.60071 9758 ft 350 kts 107°
2026-05-04 20:45 16.04199 -97.57676 9614 ft 350 kts 108°
2026-05-04 20:45 16.03344 -97.55351 9429 ft 332 kts 110°
2026-05-04 20:46 16.02491 -97.53205 9157 ft 317 kts 111°
2026-05-04 20:46 16.01645 -97.51127 8886 ft 303 kts 111°
2026-05-04 20:46 16.00855 -97.49204 8640 ft 292 kts 111°
2026-05-04 20:46 16.00073 -97.47309 8511 ft 277 kts 111°
2026-05-04 20:47 15.99327 -97.45493 8303 ft 268 kts 111°
2026-05-04 20:47 15.98607 -97.43732 8053 ft 263 kts 111°
2026-05-04 20:47 15.97907 -97.42006 7799 ft 261 kts 111°
2026-05-04 20:47 15.97203 -97.40259 7508 ft 261 kts 111°
2026-05-04 20:48 15.96513 -97.38535 7234 ft 260 kts 111°
2026-05-04 20:48 15.95828 -97.36791 6942 ft 256 kts 111°
2026-05-04 20:48 15.95170 -97.35087 6645 ft 255 kts 111°
2026-05-04 20:48 15.94543 -97.33439 6556 ft 236 kts 111°
2026-05-04 20:49 15.93960 -97.31893 6398 ft 223 kts 111°
2026-05-04 20:49 15.93411 -97.30420 6101 ft 219 kts 111°
2026-05-04 20:49 15.92868 -97.28955 5811 ft 215 kts 111°
2026-05-04 20:49 15.92333 -97.27507 5517 ft 211 kts 111°
2026-05-04 20:50 15.91809 -97.26083 5253 ft 210 kts 111°
2026-05-04 20:50 15.91727 -97.25862 5211 ft 210 kts 111°
2026-05-04 20:50 15.91211 -97.24458 4980 ft 206 kts 111°
2026-05-04 20:50 15.90704 -97.23074 4741 ft 209 kts 111°
2026-05-04 20:51 15.90189 -97.21661 4476 ft 207 kts 111°
2026-05-04 20:51 15.89682 -97.20264 4213 ft 206 kts 111°
2026-05-04 20:51 15.89181 -97.18879 3955 ft 206 kts 111°
2026-05-04 20:51 15.88679 -97.17487 3692 ft 205 kts 111°
2026-05-04 20:52 15.88177 -97.16089 3429 ft 204 kts 111°
2026-05-04 20:52 15.87688 -97.14723 3189 ft 197 kts 111°
2026-05-04 20:52 15.87220 -97.13408 2898 ft 189 kts 111°
2026-05-04 20:52 15.86820 -97.12153 2621 ft 182 kts 106°
2026-05-04 20:53 15.86561 -97.10887 2407 ft 178 kts 100°
2026-05-04 20:53 15.86384 -97.09596 2264 ft 181 kts 99°
2026-05-04 20:53 15.86178 -97.08302 2199 ft 184 kts 102°
2026-05-04 20:53 15.85935 -97.07004 2298 ft 181 kts 105°
2026-05-04 20:54 15.85677 -97.05737 2272 ft 181 kts 100°
2026-05-04 20:54 15.85430 -97.04463 2312 ft 184 kts 102°
2026-05-04 20:54 15.85175 -97.03151 2190 ft 181 kts 103°
2026-05-04 20:54 15.84926 -97.01884 2134 ft 183 kts 103°
2026-05-04 20:55 15.84672 -97.00587 2125 ft 182 kts 103°
2026-05-04 20:55 15.84411 -96.99291 2074 ft 184 kts 102°
2026-05-04 20:55 15.84147 -96.98016 2065 ft 182 kts 103°
2026-05-04 20:55 15.83964 -96.96723 2065 ft 176 kts 85°
2026-05-04 20:56 15.84312 -96.95526 2075 ft 175 kts 65°
2026-05-04 20:56 15.85119 -96.94595 2078 ft 177 kts 26°
2026-05-04 20:56 15.86287 -96.94261 2100 ft 175 kts 359°
2026-05-04 20:56 15.87432 -96.94536 2072 ft 169 kts 321°
2026-05-04 20:57 15.88135 -96.95481 2100 ft 165 kts 287°
2026-05-04 20:57 15.88267 -96.96655 2101 ft 163 kts 268°
2026-05-04 20:57 15.88206 -96.97918 1880 ft 185 kts 261°
2026-05-04 20:57 15.88011 -96.99115 1822 ft 155 kts 259°
2026-05-04 20:58 15.87831 -97.00193 1580 ft 158 kts 259°
2026-05-04 20:58 15.87630 -97.01365 1528 ft 168 kts 258°
2026-05-04 20:58 15.87472 -97.02569 1320 ft 164 kts 264°
2026-05-04 20:58 15.87461 -97.03737 1180 ft 161 kts 271°
2026-05-04 20:59 15.87499 -97.04922 978 ft 170 kts 271°
2026-05-04 20:59 15.87598 -97.06130 706 ft 159 kts 270°
2026-05-04 20:59 15.87615 -97.07230 439 ft 149 kts 270°
2026-05-04 20:59 15.87654 -97.08380 269 ft 163 kts 272°
2026-05-04 21:00 15.87712 -97.09254 217 ft 71 kts 273°
2026-05-04 21:00 15.87733 -97.09594 208 ft 31 kts 275°
2026-05-04 21:00 15.87746 -97.09802 190 ft 28 kts 274°
2026-05-04 21:00 15.87708 -97.09953 175 ft 11 kts 286°
2026-05-04 21:01 15.87727 -97.09952 175 ft 5 kts 40°
2026-05-04 21:01 15.87743 -97.09901 177 ft 10 kts 82°
2026-05-04 21:01 15.87745 -97.09806 191 ft 18 kts 91°
2026-05-04 21:01 15.87738 -97.09633 195 ft 30 kts 94°
2026-05-04 21:02 15.87722 -97.09416 206 ft 21 kts 96°
2026-05-04 21:02 15.87655 -97.09373 213 ft 9 kts 180°
2026-05-04 21:02 15.87599 -97.09375 214 ft 8 kts 183°
2026-05-04 21:02 15.87551 -97.09353 216 ft 7 kts 128°
2026-05-04 21:03 15.87538 -97.09309 216 ft 5 kts 105°
2026-05-04 21:03 15.87518 -97.09293 218 ft 4 kts 178°
2026-05-04 21:03 15.87485 -97.09296 216 ft 3 kts 182°